[[{"header":{"parameterUnit":"m.s-1","parameterCategory":1,"la1":30.2991,"la2":30.254,"lo1":-89.0895,"lo2":-89.0444,"dy":0.0017,"dx":0.0017,"nx":28,"ny":28,"refTime":"2025-04-09T09:00:00:Z","depth":0,"parameterNumber":2,"parameterNumberName":"U-component_of_WINDS"},"data":[0,0,0,0,0,0,0,0,0,0,0,0,0,0,0,0,0,0,0,0,0,0,0,0,0,0,0,0,0,0,0,0,0,0,0,0,0,0,0,0,0,0,0,0,0,0,0,0,0,0,0,0,0,0,0,0,0,0,2.4846,2.4846,0,2.4845,2.4845,2.4845,2.4814,2.4813,2.4812,2.4811,2.4809,2.4809,2.481,0,0,0,0,0,0,0,0,0,0,0,0,0,2.4821,2.4822,2.4846,2.4846,2.4846,2.4845,2.4845,2.4845,2.4814,2.4813,2.4812,2.4811,2.4808,2.4809,2.481,0,0,0,0,0,0,0,0,0,0,0,0,0,2.4827,2.4822,2.4846,2.483,2.4829,2.4845,2.4845,2.4845,2.4814,2.4813,2.4812,2.481,2.4808,2.4809,2.481,2.484,0,0,2.4813,2.4814,0,0,0,0,0,0,0,0,2.4827,2.4828,2.4833,2.4831,2.483,2.4828,2.4835,2.4843,2.4814,2.482,2.4811,2.481,2.4816,2.4816,2.4819,2.484,2.484,2.4813,2.4814,2.4814,2.4815,0,0,0,0,0,0,0,2.4827,2.4828,2.4845,2.4833,2.4831,2.4823,2.4823,2.4836,2.4824,2.4819,2.4817,2.4817,2.4815,2.4818,2.4818,2.484,2.4813,2.4814,2.4815,2.4815,2.4888,2.4889,0,0,0,0,0,0,2.4828,2.4828,2.4845,2.4845,2.4826,2.4825,2.4824,2.483,2.4824,2.4822,2.4818,2.4816,2.4817,2.4817,2.4818,2.4854,2.4814,2.4815,2.4816,2.4886,2.4888,2.489,0,0,0,0,0,0,2.4828,2.483,2.4845,2.4836,2.4837,2.4827,2.4833,2.483,2.4833,2.4824,2.4821,2.4823,2.4816,2.4817,2.4835,2.4853,2.4816,2.4817,2.4885,2.4887,2.4889,2.4925,0,0,0,0,0,0,2.4828,2.483,2.4841,2.4837,2.4838,2.4863,2.4834,2.4831,2.4835,2.4832,2.4828,2.4826,2.4815,2.4834,2.4836,2.4854,2.4817,2.4883,2.4886,2.4888,2.4922,2.4928,2.4933,0,0,0,0,0,2.4827,2.4851,2.4842,2.4844,2.4852,2.4864,2.4864,2.4852,2.4837,2.4848,2.4842,2.4826,2.4851,2.4836,2.4839,2.4857,2.4882,2.4885,2.4888,2.492,2.4927,2.4933,0,0,0,0,0,0,2.4857,2.485,2.484,2.4863,2.4865,2.4858,2.4872,2.4859,2.4864,2.4861,2.4845,2.4844,2.4866,2.4863,2.4847,2.4887,2.4864,2.4868,2.4887,2.4894,2.4899,2.4899,2.4818,0,0,0,0,0,2.4867,2.4877,2.487,2.4891,2.4893,2.4883,2.4887,2.4878,2.4878,2.4878,2.4874,2.4874,2.4883,2.4888,2.4895,2.4922,2.4921,2.4936,2.4941,2.4946,2.4949,2.4964,2.4971,2.4899,2.4899,2.4899,0,0,2.4886,2.4883,2.4891,2.4898,2.4897,2.4909,2.4883,2.4896,2.4904,2.488,2.4898,2.4895,2.4894,2.4918,2.4928,2.4916,2.4969,2.495,2.4953,2.4954,2.4968,2.4975,2.4981,2.4901,2.4901,2.4901,0,0,2.4927,2.4926,2.4944,2.4945,2.4946,2.4939,2.4944,2.494,2.4938,2.4956,2.4938,2.4948,2.4962,2.4964,2.4966,2.5011,2.4996,2.5014,2.5041,2.5057,2.5062,2.5067,2.5084,2.509,2.5017,2.5017,2.5017,0,2.4951,2.4968,2.4955,2.497,2.4974,2.4954,2.4973,2.4974,2.4977,2.498,2.4967,2.4986,2.4984,2.5009,2.502,2.5022,2.5027,2.5013,2.5063,2.5068,2.5072,2.5088,2.5094,2.5019,2.5019,2.5019,2.5018,0,2.4998,2.501,2.5025,2.5029,2.5035,2.5051,2.5042,2.5049,2.504,2.5035,2.5054,2.5052,2.5059,2.5064,2.5054,2.5087,2.508,2.5066,2.5042,2.5081,2.5096,2.5101,2.5022,2.5021,2.5021,2.502,0,0,2.5056,2.5055,2.5061,2.5063,2.5063,2.5073,2.5089,2.5097,2.5104,2.5107,2.5121,2.5135,2.5122,2.5125,2.5115,2.5129,2.5166,2.5112,2.5112,2.5123,2.5203,2.5214,2.5221,2.5157,2.5158,2.5158,2.5203,0,2.5096,2.5124,2.5115,2.5143,2.5155,2.5138,2.5152,2.5154,2.5151,2.516,2.5156,2.5166,2.5148,2.515,2.5163,2.5158,2.5181,2.5155,2.5169,2.517,2.5169,2.5228,2.5239,2.5281,2.5208,2.5209,2.521,0,2.5146,2.5153,2.5183,2.5184,2.5188,2.5201,2.5209,2.5218,2.5221,2.5217,2.5222,2.521,2.5227,2.5205,2.5228,2.521,2.5216,2.5215,2.5216,2.5217,2.5192,2.523,2.5294,2.5301,2.5219,2.5218,2.5217,0,2.5186,2.5203,2.5224,2.5226,2.5227,2.5237,2.5238,2.5239,2.5245,2.5252,2.5256,2.5264,2.5268,2.5275,2.5266,2.5251,2.5291,2.5268,2.5289,2.5289,2.5297,2.5297,2.5363,2.5301,2.5301,2.5301,2.5301,0,2.5232,2.5252,2.5242,2.5255,2.5276,2.5266,2.5287,2.5286,2.5288,2.53,2.5286,2.5298,2.5286,2.5297,2.529,2.5311,2.5313,2.5311,2.5309,2.5312,2.5312,2.5315,2.5311,2.5303,2.5302,2.5302,2.5302,0,2.528,2.5274,2.5296,2.5296,2.5296,2.5312,2.5312,2.5324,2.532,2.5336,2.534,2.5334,2.5346,2.5339,2.5351,2.5347,2.5374,2.5368,2.5373,2.5371,2.5393,2.5391,2.5463,2.5472,2.5405,2.5405,2.5406,0,2.5309,2.5324,2.5326,2.5334,2.5336,2.5348,2.5355,2.5346,2.5353,2.5359,2.537,2.5382,2.539,2.5411,2.5408,2.5418,2.5412,2.5437,2.5413,2.5416,2.5413,2.5412,2.5413,2.5441,2.5442,2.5442,2.5443,0,2.5362,2.536,2.537,2.538,2.5388,2.5396,2.5401,2.5409,2.54,2.5409,2.5422,2.5429,2.5443,2.5455,2.5464,2.5464,2.5452,2.5451,2.5456,2.5459,2.5462,2.5461,2.5386,2.5449,2.5448,2.5448,2.5447,2.5447,2.5402,2.5415,2.5419,2.5431,2.5435,2.5442,2.5454,2.5452,2.5463,2.5474,2.5468,2.5484,2.5488,2.5499,2.5502,2.5514,2.5504,2.5512,2.5513,2.5515,2.5519,2.5461,2.5515,2.5515,2.5515,2.5515,2.5515,0,2.5454,2.5457,2.5468,2.5478,2.5488,2.5478,2.5484,2.5493,2.5508,2.5513,2.5522,2.5538,2.555,2.5549,2.556,2.557,2.5565,2.5574,2.5572,2.5573,2.5527,2.5521,2.5578,2.5578,2.5578,2.5578,2.5578,2.5578,2.5483,2.5504,2.5502,2.5526,2.5529,2.5545,2.5549,2.5556,2.556,2.5579,2.5589,2.5589,2.5591,2.5603,2.5614,2.5613,2.5618,2.5628,2.5626,2.5582,2.5576,2.557,2.5565,2.563,2.563,2.5671,2.5671,2.5672]},{"header":{"parameterUnit":"m.s-1","parameterCategory":1,"la1":30.2991,"la2":30.254,"lo1":-89.0895,"lo2":-89.0444,"dy":0.0017,"dx":0.0017,"nx":28,"ny":28,"refTime":"2025-04-09T09:00:00:Z","depth":0,"parameterNumber":3,"parameterNumberName":"V-component_of_WINDS"},"data":[0,0,0,0,0,0,0,0,0,0,0,0,0,0,0,0,0,0,0,0,0,0,0,0,0,0,0,0,0,0,0,0,0,0,0,0,0,0,0,0,0,0,0,0,0,0,0,0,0,0,0,0,0,0,0,0,0,0,-1.0965,-1.0966,0,-1.1074,-1.1075,-1.1076,-1.1093,-1.1092,-1.1091,-1.109,-1.1205,-1.1209,-1.1213,0,0,0,0,0,0,0,0,0,0,0,0,0,-1.0775,-1.0778,-1.0965,-1.0966,-1.0967,-1.1074,-1.1075,-1.1077,-1.1093,-1.1092,-1.1091,-1.109,-1.1204,-1.1208,-1.1213,0,0,0,0,0,0,0,0,0,0,0,0,0,-1.0868,-1.0779,-1.0964,-1.0988,-1.0991,-1.1073,-1.1075,-1.1077,-1.1093,-1.1092,-1.109,-1.1089,-1.1202,-1.1208,-1.1214,-1.128,0,0,-1.1232,-1.1235,0,0,0,0,0,0,0,0,-1.0863,-1.0875,-1.0983,-1.0987,-1.0991,-1.1068,-1.105,-1.1145,-1.1094,-1.1055,-1.109,-1.1088,-1.1161,-1.117,-1.1194,-1.1286,-1.1291,-1.1233,-1.1236,-1.1239,-1.1241,0,0,0,0,0,0,0,-1.0856,-1.087,-1.1008,-1.0985,-1.0989,-1.0995,-1.1007,-1.1069,-1.1115,-1.1058,-1.106,-1.1072,-1.1163,-1.1188,-1.1197,-1.1292,-1.1233,-1.1238,-1.1242,-1.1244,-1.1448,-1.1449,0,0,0,0,0,0,-1.0845,-1.0865,-1.1004,-1.1011,-1.0922,-1.1,-1.1013,-1.1045,-1.1114,-1.1123,-1.1073,-1.1072,-1.1179,-1.119,-1.1201,-1.1285,-1.1239,-1.1244,-1.1248,-1.1446,-1.1448,-1.145,0,0,0,0,0,0,-1.0841,-1.0857,-1.1,-1.0939,-1.0957,-1.1004,-1.1041,-1.1048,-1.1073,-1.1126,-1.1134,-1.1091,-1.1178,-1.1193,-1.1261,-1.129,-1.1247,-1.1253,-1.1444,-1.1446,-1.1449,-1.1453,0,0,0,0,0,0,-1.0835,-1.0856,-1.088,-1.0939,-1.096,-1.1057,-1.1042,-1.1051,-1.1083,-1.1083,-1.1144,-1.1153,-1.1178,-1.1252,-1.1267,-1.1297,-1.1257,-1.1441,-1.1445,-1.1448,-1.1451,-1.1456,-1.146,0,0,0,0,0,-1.0828,-1.0877,-1.0881,-1.0898,-1.0992,-1.1058,-1.1071,-1.1097,-1.1085,-1.1111,-1.1146,-1.1151,-1.1284,-1.1259,-1.1276,-1.1308,-1.144,-1.1444,-1.1448,-1.1449,-1.1455,-1.146,0,0,0,0,0,0,-1.0821,-1.0885,-1.089,-1.0959,-1.1003,-1.1061,-1.1094,-1.1103,-1.1152,-1.115,-1.1182,-1.1196,-1.1263,-1.1292,-1.1263,-1.1378,-1.1361,-1.1369,-1.1356,-1.1362,-1.1367,-1.1359,-1.1262,0,0,0,0,0,-1.0827,-1.0874,-1.0929,-1.0984,-1.1006,-1.1046,-1.1076,-1.1093,-1.1141,-1.1159,-1.1198,-1.1245,-1.1298,-1.1331,-1.1382,-1.1455,-1.147,-1.1486,-1.1491,-1.1494,-1.1501,-1.1544,-1.1553,-1.1463,-1.1463,-1.1463,0,0,-1.0841,-1.0882,-1.091,-1.0984,-1.102,-1.107,-1.1062,-1.1115,-1.1153,-1.1168,-1.1235,-1.1265,-1.132,-1.1391,-1.1425,-1.1418,-1.1529,-1.15,-1.1502,-1.1507,-1.1549,-1.1558,-1.1565,-1.1466,-1.1466,-1.1465,0,0,-1.0891,-1.0926,-1.0977,-1.1014,-1.1068,-1.1095,-1.1108,-1.1165,-1.1186,-1.1253,-1.1266,-1.1313,-1.1402,-1.1441,-1.1472,-1.154,-1.1548,-1.1556,-1.1581,-1.1622,-1.1629,-1.1636,-1.1662,-1.1671,-1.1562,-1.1562,-1.1562,0,-1.0902,-1.0976,-1.1003,-1.1056,-1.1089,-1.1105,-1.1158,-1.1193,-1.1261,-1.1285,-1.1276,-1.139,-1.1427,-1.1509,-1.1526,-1.155,-1.1567,-1.1549,-1.1626,-1.1633,-1.1639,-1.1665,-1.1674,-1.1563,-1.1563,-1.1563,-1.1563,0,-1.0987,-1.1039,-1.1074,-1.114,-1.1177,-1.123,-1.1266,-1.1301,-1.1316,-1.1344,-1.1415,-1.146,-1.1522,-1.1543,-1.1557,-1.1628,-1.1622,-1.1619,-1.1603,-1.1648,-1.1672,-1.1682,-1.1564,-1.1564,-1.1563,-1.1563,0,0,-1.1035,-1.1116,-1.1129,-1.116,-1.1222,-1.1264,-1.1318,-1.1378,-1.1408,-1.1456,-1.1504,-1.158,-1.1578,-1.1614,-1.1633,-1.167,-1.1723,-1.1663,-1.1665,-1.1674,-1.1807,-1.1809,-1.182,-1.1729,-1.1731,-1.1732,-1.1803,0,-1.1094,-1.1191,-1.1217,-1.13,-1.135,-1.1366,-1.1414,-1.1459,-1.1487,-1.1535,-1.1567,-1.1621,-1.1614,-1.1636,-1.1673,-1.1709,-1.1751,-1.1704,-1.1776,-1.1778,-1.1763,-1.1832,-1.1835,-1.1899,-1.1812,-1.1814,-1.1815,0,-1.1175,-1.1224,-1.1312,-1.137,-1.1392,-1.1434,-1.1492,-1.1537,-1.1589,-1.1607,-1.1648,-1.1665,-1.1725,-1.1705,-1.179,-1.1757,-1.1789,-1.1811,-1.1814,-1.1823,-1.18,-1.1844,-1.192,-1.193,-1.183,-1.1829,-1.1828,0,-1.1204,-1.1292,-1.1356,-1.1382,-1.145,-1.148,-1.1511,-1.1561,-1.1596,-1.1647,-1.1671,-1.1729,-1.1761,-1.1806,-1.1839,-1.1821,-1.1922,-1.1904,-1.1941,-1.194,-1.1961,-1.196,-1.2044,-1.1979,-1.1979,-1.1979,-1.1979,0,-1.1267,-1.132,-1.137,-1.1409,-1.147,-1.1501,-1.1562,-1.1593,-1.1638,-1.1685,-1.1704,-1.1748,-1.1788,-1.1838,-1.1865,-1.1932,-1.1946,-1.1964,-1.1971,-1.1963,-1.1961,-1.1985,-1.1982,-1.1981,-1.1981,-1.198,-1.198,0,-1.1309,-1.1344,-1.1415,-1.1475,-1.1491,-1.1534,-1.1586,-1.1626,-1.1656,-1.1716,-1.1732,-1.1779,-1.184,-1.1877,-1.1954,-1.1972,-1.2047,-1.2051,-1.2029,-1.2032,-1.2067,-1.2064,-1.2171,-1.2188,-1.211,-1.211,-1.2111,0,-1.1348,-1.1389,-1.1453,-1.1486,-1.1517,-1.1569,-1.1605,-1.1638,-1.1676,-1.1739,-1.1772,-1.1834,-1.1885,-1.1982,-1.2024,-1.2084,-1.2091,-1.2124,-1.21,-1.2092,-1.2094,-1.2091,-1.2097,-1.2129,-1.2129,-1.213,-1.213,0,-1.1413,-1.1429,-1.1479,-1.1537,-1.1579,-1.1626,-1.1673,-1.1699,-1.1741,-1.1782,-1.1844,-1.1884,-1.1963,-1.2025,-1.2089,-1.2122,-1.2134,-1.2138,-1.215,-1.2143,-1.2129,-1.2139,-1.2042,-1.2135,-1.2135,-1.2134,-1.2134,-1.2134,-1.1456,-1.1494,-1.1546,-1.1603,-1.1642,-1.1686,-1.1727,-1.1762,-1.1814,-1.1881,-1.1897,-1.1963,-1.2017,-1.2104,-1.2139,-1.2192,-1.2187,-1.2204,-1.2208,-1.2212,-1.2214,-1.212,-1.2204,-1.2203,-1.2203,-1.2203,-1.2203,0,-1.1524,-1.1558,-1.161,-1.1675,-1.172,-1.1727,-1.178,-1.1818,-1.1875,-1.1923,-1.1974,-1.2046,-1.2107,-1.2155,-1.2218,-1.2252,-1.2259,-1.2267,-1.2266,-1.2274,-1.2214,-1.2198,-1.2261,-1.226,-1.226,-1.226,-1.226,-1.226,-1.1564,-1.1631,-1.1653,-1.174,-1.1774,-1.1838,-1.1868,-1.191,-1.1949,-1.2029,-1.2079,-1.211,-1.2159,-1.2226,-1.2283,-1.2296,-1.2319,-1.2327,-1.2341,-1.2284,-1.2278,-1.2272,-1.2257,-1.2331,-1.2331,-1.2397,-1.2397,-1.2398]}]]